Weather History for KBRD - November, 2013

Change the Weather History Date:

Wednesday, November 6, 2013

  Actual Average Record
Temperature  
Mean Temperature 32 °F -  
Max Temperature 39 °F 42 °F 72 °F (1975)
Min Temperature 26 °F 22 °F -3 °F (1991)
Degree Days  
Heating Degree Days 32    
Moisture  
Dew Point 19 °F    
Average Humidity 62    
Maximum Humidity 84    
Minimum Humidity 38    
Precipitation  
Precipitation 0.00 in - - ()
Sea Level Pressure  
Sea Level Pressure 30.12 in    
Wind  
Wind Speed 6 mph (NW)    
Max Wind Speed 10 mph    
Max Gust Speed -    
Visibility 10 miles    
Events      
Averages and records for this station are not official NWS values.
T = Trace of Precipitation, MM = Missing Value Source: NWS Daily Summary

Daily Weather History Graph

Daily Weather History Graph

Search for Another Location

Airport or City:

Trip Planner

Search our weather history database for the weather conditions in past years. The results will help you decide how hot, cold, wet, or windy it might be!

Date:

Astronomy

Nov. 06, 2013 Rise Set
Actual Time 7:05 AM CST 4:54 PM CST
Civil Twilight 6:33 AM CST 5:26 PM CST
Nautical Twilight 5:57 AM CST 6:01 PM CST
Astronomical Twilight 5:22 AM CST 6:37 PM CST
Moon 10:26 AM CST (11/6) 7:54 PM CST (11/6)
Length of Visible Light 10h 52m
Length of Day
9h 48m
Waxing Crescent, 14% of the Moon is Illuminated
Nov 6
Waxing Crescent
Nov 9
First Quarter
Nov 17
Full
Nov 25
Last Quarter
Dec 2
New

Hourly Weather History & Observations

Time (CST) Temp. Windchill Dew Point Humidity Pressure Visibility Wind Dir Wind Speed Gust Speed Precip Events Conditions
12:53 AM 33.1 °F 27.7 °F 23.0 °F 66% 30.11 in 10.0 mi NW 5.8 mph - N/A   Overcast
1:53 AM 33.1 °F 26.1 °F 23.0 °F 66% 30.10 in 10.0 mi NNW 8.1 mph - N/A   Overcast
2:53 AM 32.0 °F 27.5 °F 23.0 °F 69% 30.10 in 10.0 mi NW 4.6 mph - N/A   Overcast
3:53 AM 32.0 °F 24.8 °F 21.9 °F 66% 30.09 in 10.0 mi NW 8.1 mph - N/A   Mostly Cloudy
4:53 AM 30.0 °F 23.2 °F 19.9 °F 66% 30.10 in 10.0 mi NW 6.9 mph - N/A   Clear
5:53 AM 28.9 °F 20.4 °F 17.1 °F 61% 30.10 in 10.0 mi NW 9.2 mph - N/A   Clear
6:53 AM 27.0 °F 18.0 °F 16.0 °F 63% 30.09 in 10.0 mi NW 9.2 mph - N/A   Clear
7:53 AM 27.0 °F 18.7 °F 17.1 °F 66% 30.11 in 10.0 mi NNW 8.1 mph - N/A   Clear
8:53 AM 30.0 °F 22.4 °F 17.1 °F 59% 30.10 in 10.0 mi NNW 8.1 mph - N/A   Clear
9:53 AM 32.0 °F 23.6 °F 16.0 °F 52% 30.10 in 10.0 mi WNW 10.4 mph - N/A   Clear
10:53 AM 34.0 °F 27.2 °F 16.0 °F 48% 30.11 in 10.0 mi WNW 8.1 mph - N/A   Clear
11:53 AM 37.0 °F 29.8 °F 15.1 °F 41% 30.10 in 10.0 mi WNW 10.4 mph - N/A   Scattered Clouds
12:53 PM 37.9 °F 32.1 °F 16.0 °F 41% 30.09 in 10.0 mi WNW 8.1 mph - N/A   Mostly Cloudy
1:53 PM 39.9 °F 33.4 °F 16.0 °F 38% 30.10 in 10.0 mi WNW 10.4 mph - N/A   Scattered Clouds
2:53 PM 39.0 °F 34.0 °F 18.0 °F 43% 30.11 in 10.0 mi WNW 6.9 mph - N/A   Overcast
3:53 PM 37.9 °F 32.7 °F 19.9 °F 48% 30.12 in 10.0 mi NW 6.9 mph - N/A   Overcast
4:53 PM 34.0 °F 29.8 °F 19.0 °F 54% 30.13 in 10.0 mi North 4.6 mph - N/A   Overcast
5:53 PM 32.0 °F - 19.0 °F 59% 30.14 in 10.0 mi Calm Calm - N/A   Mostly Cloudy
6:53 PM 28.9 °F - 19.0 °F 67% 30.15 in 10.0 mi Calm Calm - N/A   Mostly Cloudy
7:53 PM 27.0 °F - 19.9 °F 75% 30.16 in 10.0 mi Calm Calm - N/A   Mostly Cloudy
8:53 PM 27.0 °F - 21.0 °F 78% 30.16 in 10.0 mi Calm Calm - N/A   Clear
9:48 PM 26.6 °F - 21.2 °F 80% 30.12 in 10.0 mi Calm Calm - N/A   Mostly Cloudy
9:53 PM 27.0 °F - 21.0 °F 78% 30.18 in 10.0 mi Calm Calm - N/A   Mostly Cloudy
10:27 PM 28.4 °F - 21.2 °F 74% 30.13 in 9.0 mi Calm Calm - N/A   Overcast
10:53 PM 28.0 °F - 21.0 °F 75% 30.18 in 10.0 mi Calm Calm - N/A   Overcast
11:53 PM 26.1 °F - 21.9 °F 84% 30.19 in 9.0 mi Calm Calm - N/A   Clear